Location: Charlottesville
(38.0290°N, 78.4770°W)
Time: 01:02:01
(UTC-04:00)

Vanguard 1 - Visible Passes

Search period start: 21 June 2018 00:00
Search period end: 01 July 2018 00:00
Orbit: 650 x 3833 km, 34.3° (Epoch: 20 June)

Date Brightness Start Highest point End Pass type
(mag) Time Alt. Az. Time Alt. Az. Time Alt. Az.
23 Jun 12.4 04:06:40 10° SSE 04:09:57 13° SE 04:13:57 10° ESE visible
24 Jun 12.1 04:24:58 10° S 04:30:06 20° SE 04:37:24 10° E visible
25 Jun 12.0 04:44:24 10° SSW 04:50:21 28° SE 04:59:45 10° E visible
26 Jun 11.8 05:04:20 10° SSW 05:10:46 37° SE 05:21:42 10° E visible
28 Jun 11.8 03:30:52 14° SSE 03:32:56 16° SE 03:37:31 10° E visible
29 Jun 11.4 03:50:38 18° S 03:53:13 23° SE 03:59:57 10° E visible
30 Jun 11.2 04:10:24 21° SSW 04:13:39 32° SE 04:21:48 10° E visible
